Back to catalog

STARLINK-6178

AliveCommunicationsVLEO
NORAD 56387·PAYLOAD·🇺🇸 United States

Launched May 4, 2023 from Cape Canaveral Space Force Station

Loading…

Next Passes (next 24 hours)

TLE

FreshSource: CelesTrak SupGP

Epoch: Sep 14, 2026, 14:18 UTC

1 56387C 23061P   26257.59631944 -.00034974  00000+0 -12671-2 0  2578
2 56387  43.0020 210.8372 0002016 277.7273  59.8470 15.27586125    13

Track STARLINK-6178 in real time with AllMySat

Download on the App Store